Location: Olomouc
(49.5830°N, 17.2500°E)
Time: 01:57:08
(UTC+01:00)

ISS - Visible Passes

Search period start: 06 December 2023 00:00
Search period end: 16 December 2023 00:00
Orbit: 415 x 417 km, 51.6° (Epoch: 05 December)

Date Brightness Start Highest point End Pass type
(mag) Time Alt. Az. Time Alt. Az. Time Alt. Az.
06 Dec -0.6 17:30:26 10° WSW 17:32:04 13° SW 17:33:43 10° SSW visible
07 Dec -0.8 16:41:13 10° W 16:43:44 20° SW 16:46:15 10° S visible
15 Dec -0.7 06:59:56 10° S 07:02:24 19° SE 07:04:54 10° E visible
